Regional Weather Roundup
Issued by NWS

Home | Current Version | Previous Version | Graphics & Text | Print | Product List | Glossary On
Versions: 1 2 3 4 5 6 7 8 9 10 11 12 13 14 15 16 17 18 19 20 21 22 23 24 25 26 27 28 29 30 31 32 33 34 35 36 37 38 39 40 41 42 43 44 45 46 47 48 49 50
000
ASUS43 KMPX 242010
RWRMN
WEATHER ROUNDUP FOR MINNESOTA
NATIONAL WEATHER SERVICE TWIN CITIES/CHANHASSEN MN
300 PM CDT WED AUG 24 2016


NOTE: "FAIR" INDICATES FEW OR NO CLOUDS BELOW 12,000 FEET WITH NO
SIGNIFICANT WEATHER AND/OR OBSTRUCTIONS TO VISIBILITY. N/A MEANS
CURRENT SKY AND/OR WEATHER CONDITIONS ARE NOT AVAILABLE.

MNZ060>063-068>070-242100-
   Twin Cities Metro

CITY           SKY/WX    TMP DP  RH WIND       PRES   REMARKS
TWIN CITIES    CLOUDY    80  58  46 W13       29.93S
ST PAUL        PTSUNNY   80  53  39 W16       29.92S
CRYSTAL        CLOUDY    81  55  40 W14       29.91S
BLAINE         PTSUNNY   81  57  44 W10       29.92S
LAKEVILLE      CLOUDY    77  63  61 W8        29.94R
EDEN PRAIRIE   CLOUDY    81  60  48 W8        29.93R
LAKEVILLE      CLOUDY    77  63  61 W8        29.94R
SOUTH ST PAUL  MOSUNNY   81  58  45 W9        29.92S
LAKE ELMO      FAIR      79  61  53 W12       29.93S
$$
MNZ001>005-007-008-013>017-022>024-027-028-242100-
   Northwest Minnesota

CITY           SKY/WX    TMP DP  RH WIND       PRES   REMARKS
BEMIDJI        PTSUNNY   73  54  51 W15       29.90R
HALLOCK        PTSUNNY   72  52  49 W14G21    29.84S
ROSEAU         MOSUNNY   73  55  53 W15G23    29.84S
WARROAD        MOSUNNY   72  57  60 W13G24    29.83S
THIEF RVR FALL MOSUNNY   73  52  47 W21       29.89R
CROOKSTON      PTSUNNY   73  54  49 W22       29.89S
FOSSTON        CLOUDY    72  52  49 W13       29.91S
DETROIT LAKES  MOSUNNY   72  54  53 W12G17    29.96R
MOORHEAD       MOSUNNY   73  54  49 W15       29.95R
PARK RAPIDS    MOSUNNY   74  54  49 W17G25    29.93R
MAHNOMEN       MOCLDY    73  53  49 W20G25    29.92R
$$
MNZ006-009>011-018-025>026-242100-
   North Central Minnesota

CITY           SKY/WX    TMP DP  RH WIND       PRES   REMARKS
BAUDETTE       SUNNY     75  54  47 W15       29.82S
FLAG ISLAND    MOSUNNY   73  50  43 SW7       29.78S HAZE
INTL FALLS     MOSUNNY   78  54  43 W13G18    29.79S
WASKISH        SUNNY     75  57  53 W14       29.86S
BIG FORK       MOSUNNY   77  54  44 W12G17    29.85S
LONGVILLE      PTSUNNY   75  54  46 SW9       29.90R
GRAND RAPIDS   MOSUNNY   77  54  44 SW10G16   29.89R
CRANE LAKE     MOSUNNY   75  54  46 W10       29.81S
ORR            SUNNY     77  46  33 W12       29.80S
COOK           MOSUNNY   79  52  38 W14G23    29.83S
WALKER         FAIR      73  54  51 SW15      29.90R
$$
MNZ012-019>021-037-242100-
   Northeast Minnesota

CITY           SKY/WX    TMP DP  RH WIND       PRES   REMARKS
DULUTH         MOSUNNY   82  53  36 W16G25    29.85R
ELY            SUNNY     77  52  41 W14G20    29.81R
HIBBING        SUNNY     77  51  40 W13G21    29.85R
EVELETH        SUNNY     78  48  34 W16G23    29.85R
DULUTH HARBOR  MOSUNNY   84  57  39 W21       29.82R
TWO HARBORS    SUNNY     82  61  47 W9        29.80R
SILVER BAY     MOSUNNY   81  64  57 W7        29.78F
GRAND MARAIS     N/A     73  61  65 SW12      29.77S
G MARAIS ARPRT SUNNY     75  63  64 S7        29.82R
$$
MNZ029>031-032-039>041-046>048-054>057-064-242100-
   West Central Minnesota

CITY           SKY/WX    TMP DP  RH WIND       PRES   REMARKS
FERGUS FALLS   MOSUNNY   73  55  53 NW18      29.98R
WHEATON        MOSUNNY   75  57  53 W12G21    30.00S
MORRIS         MOSUNNY   75  55  50 NW15G24   29.98R
ALEXANDRIA     PTSUNNY   75  55  49 W18       29.98F
ELBOW LAKE     FAIR      73  56  56 NW15G25   29.98F
WADENA         CLOUDY    72  55  56 W13G24    29.94R
GLENWOOD       CLOUDY    73  55  53 W20G25    29.99R
BENSON         CLOUDY    75  54  46 NW10G17   29.98S
ORTONVILLE     MOSUNNY   75  54  46 W13G20    29.99S
MADISON        CLOUDY    75  54  46 NW12      30.00S
WILLMAR        FAIR      73  61  64 W8G16     29.99S
$$
MNZ033>034-036-042>043-049>051-058-059-242100-
   Central Minnesota

CITY           SKY/WX    TMP DP  RH WIND       PRES   REMARKS
ST CLOUD       CLOUDY    77  53  43 W15G25    29.93S
SAUK CENTRE    FAIR      72  56  58 W14G26    29.97S
PAYNESVILLE    CLOUDY    73  55  54 W13G21    29.97S
AITKIN         SUNNY     79  50  36 SW10G18   29.89R
PINE RIVER     MOSUNNY   75  55  50 W9G21     29.94R
BRAINERD       CLOUDY    76  52  43 W17G25    29.92R
STAPLES        PTSUNNY   75  52  43 W18G24    29.94R
LONG PRAIRIE   FAIR      72  55  56 SW15      29.96F
LITTLE FALLS   CLOUDY    73  50  43 W15       29.94R
LITCHFIELD     CLOUDY    75  59  57 W9        29.98R
BUFFALO        PTSUNNY   77  55  46 W9        29.96R
MAPLE LAKE     CLOUDY    78  57  48 W7        29.95S
HUTCHINSON     SUNNY     76  61  58 W10       29.98S
$$
MNZ037-044-045-052-053-242100-
   East Central Minnesota

CITY           SKY/WX    TMP DP  RH WIND       PRES   REMARKS
PRINCETON        N/A     81  55  41 W8G16     29.92S
MORA           CLOUDY    75  54  46 W7        29.92S
CAMBRIDGE      CLOUDY    81  61  50 W10G17    29.90S
RUSH CITY      PTSUNNY   79  57  46 W9G16     29.91R
MOOSE LAKE     MOSUNNY   79  52  38 W9G21     29.86R
HINCKLEY       FAIR      79  55  44 W7        29.89S
CLOQUET        SUNNY     81  46  30 W15G22    29.86R
MCGREGOR       SUNNY     79  52  38 W13G22    29.89R
$$
MNZ071>073-080-081-089-090-097-098-242100-
   Southwest Minnesota

CITY           SKY/WX    TMP DP  RH WIND       PRES   REMARKS
MONTEVIDEO     CLOUDY    75  57  53 NW12      30.01S
GRANITE FALLS  PTSUNNY   77  61  57 W13G18    30.01S
CANBY          CLOUDY    75  56  52 NW14      30.02S
MARSHALL       CLOUDY    75  58  55 NW17      30.00F
REDWOOD FALLS  CLOUDY    75  56  51 NW12G20   29.98S
OLIVIA         CLOUDY    73  55  53 W16G22    29.98S
PIPESTONE      CLOUDY    73  54  49 NW9       30.05S
WINDOM         CLOUDY    73  57  56 NW9       30.02S
WORTHINGTON    CLOUDY    73  58  59 NW10      30.04
JACKSON        MOSUNNY   73  57  56 NW9       30.02S
TRACY          CLOUDY    75  59  57 W7        30.02S
SLAYTON        PTSUNNY   72  57  60 W10       30.04F
$$
MNZ065>067-074>077-082>085-091>093-242100-
   South Central Minnesota

CITY           SKY/WX    TMP DP  RH WIND       PRES   REMARKS
MANKATO        CLOUDY    77  59  53 NW13      29.97S
NEW ULM        PTSUNNY   75  61  60 W12       29.98S
ST JAMES       CLOUDY    72  55  56 W8G16     30.00R
FAIRMONT       MOSUNNY   76  62  62 NW9       30.00R
GLENCOE        CLOUDY    76  61  59 W10       29.96S
FARIBAULT      MOSUNNY   79  63  57 W9        29.96S
OWATONNA       MOSUNNY   79  63  57 W9        29.96R
WASECA         CLOUDY    77  64  65 NW9       29.97S
ALBERT LEA     MOSUNNY   79  64  61 N7        29.97S
$$
MNZ078>079-086>088-094>096-242100-
   Southeast Minnesota

CITY           SKY/WX    TMP DP  RH WIND       PRES   REMARKS
ROCHESTER      PTSUNNY   79  71  76 NW10      29.96R
RED WING       MOSUNNY   81  64  57 W8G16     29.91R
STANTON        PTSUNNY   81  63  54 W10       29.93S
DODGE CENTER   MOSUNNY   79  64  61 NW13      29.96S
WINONA         CLOUDY    79  68  69 NW10      29.92R
AUSTIN         MOSUNNY   79  66  65 NW9       29.96S
PRESTON        CLOUDY    78  68  71 NW12      29.95S
$$
ABBREVIATIONS USED IN REMARKS
   TC - TEMPERATURES IN CELSIUS
  WCI - WIND CHILL INDEX
   HX - HEAT INDEX
  VSB - VISIBILITY
$$




USA.gov is the U.S. government's official web portal to all federal, state and local government web resources and services.